This demonstration page uses our WeatherBlox Daily Observations layout. Learn more.

Hourly Observations for October 9, 2019

Temp ( °F °C ) Dew Point ( °F °C ) Humidity (%) Winds ( mph kmh ) Pressure ( in mb ) Visibility ( mi km ) Precip ( " mm )
12:15 am 00:15 Clear 59 15 49 9.6 70 70 SSE 14 22 29.74 1007 10 16.09344 0 0
12:35 am 00:35 Clear 58 14.7 49 9.6 72 72 SSE 14 22 29.74 1007 10 16.09344 0 0
12:55 am 00:55 Clear 58 14.5 49 9.7 73 73 SSE 13 20 29.74 1007 10 16.09344 0 0
1:15 am 01:15 Clear 58 14.3 50 9.8 75 75 SSE 10 17 29.74 1007 10 16.09344 0 0
1:35 am 01:35 Clear 58 14.3 50 10 76 76 SSE 8 13 29.74 1007 10 16.09344 0 0
1:55 am 01:55 Clear 58 14.3 50 10 76 76 SSE 9 15 29.74 1007 10 16.09344 0 0
2:15 am 02:15 Clear 57 14 50 10 77 77 SSE 10 17 29.74 1007 10 16.09344 0 0
2:35 am 02:35 Clear 56 13.6 50 9.8 78 78 SSE 9 15 29.77 1008 10 16.09344 0 0
2:55 am 02:55 Clear 56 13.3 49 9.7 79 79 SSE 10 17 29.77 1008 10 16.09344 0 0
3:15 am 03:15 Clear 56 13.1 49 9.7 80 80 SSE 10 17 29.77 1008 10 16.09344 0 0
3:35 am 03:35 Clear 55 13 49 9.7 81 81 SSE 12 19 29.74 1007 10 16.09344 0 0
3:55 am 03:55 Clear 56 13.1 49 9.7 80 80 SSE 12 19 29.74 1007 10 16.09344 0 0
4:15 am 04:15 Clear 56 13.2 49 9.6 79 79 SSE 12 19 29.74 1007 10 16.09344 0 0
4:35 am 04:35 Clear 55 13 49 9.5 79 79 SSE 10 17 29.74 1007 10 16.09344 0 0
4:55 am 04:55 Clear 55 12.7 49 9.5 81 81 SSE 9 15 29.74 1007 10 16.09344 0 0
5:15 am 05:15 Clear 54 12.2 48 9.1 82 82 SSE 7 11 29.74 1007 10 16.09344 0 0
5:35 am 05:35 Clear 53 11.9 48 9 83 83 SSE 7 11 29.74 1007 10 16.09344 0 0
5:55 am 05:55 Clear 53 11.5 48 8.9 84 84 SSE 7 11 29.74 1007 10 16.09344 0 0
6:15 am 06:15 Clear 53 11.5 48 8.7 83 83 SSE 8 13 29.74 1007 10 16.09344 0 0
6:35 am 06:35 Clear 52 11.1 48 8.7 85 85 SSE 7 11 29.74 1007 10 16.09344 0 0
6:55 am 06:55 Clear 52 11 47 8.6 85 85 SSE 6 9 29.71 1006 10 16.09344 0 0
7:15 am 07:15 Clear 51 10.7 47 8.5 86 86 SSE 7 11 29.74 1007 10 16.09344 0 0
7:35 am 07:35 Clear 51 10.5 47 8.5 88 88 SSE 5 7 29.71 1006 10 16.09344 0 0
7:55 am 07:55 Sunny 51 10.5 47 8.5 88 88 SSE 5 7 29.74 1007 10 16.09344 0 0
8:15 am 08:15 Sunny 51 10.6 47 8.5 87 87 SE 8 13 29.74 1007 10 16.09344 0 0
8:35 am 08:35 Sunny 52 11.2 48 8.7 85 85 SE 7 11 29.74 1007 10 16.09344 0 0
8:55 am 08:55 Sunny 54 12.1 48 9 82 82 SE 13 20 29.74 1007 10 16.09344 0 0
9:15 am 09:15 Sunny 55 13 49 9.2 78 78 SE 15 24 29.74 1007 10 16.09344 0 0
9:35 am 09:35 Sunny 57 14 49 9.5 75 75 SSE 17 28 29.71 1006 10 16.09344 0 0
9:55 am 09:55 Sunny 58 14.6 49 9.6 72 72 SE 17 28 29.74 1007 10 16.09344 0 0
10:15 am 10:15 Sunny 60 15.7 50 10.2 70 70 SSE 18 30 29.74 1007 10 16.09344 0 0
10:35 am 10:35 Sunny 62 16.5 51 10.3 67 67 SSE 17 28 29.74 1007 10 16.09344 0 0
10:55 am 10:55 Sunny 63 17.1 50 10.2 64 64 SSE 20 31 29.68 1005 10 16.09344 0 0
11:15 am 11:15 Sunny 63 17.3 50 10.2 63 63 SSE 15 24 29.68 1005 10 16.09344 0 0
11:35 am 11:35 Sunny 64 17.6 51 10.3 62 62 SE 16 26 29.68 1005 10 16.09344 0 0
11:55 am 11:55 Sunny 65 18.1 51 10.7 62 62 SSE 16 26 29.68 1005 10 16.09344 0 0
12:15 pm 12:15 Sunny 65 18.5 52 10.9 61 61 SSE 16 26 29.68 1005 10 16.09344 0 0
12:35 pm 12:35 Sunny 66 18.8 52 11.2 62 62 SSE 17 28 29.65 1004 10 16.09344 0 0
12:55 pm 12:55 Sunny 67 19.3 53 11.4 60 60 SSE 17 28 29.65 1004 10 16.09344 0 0
1:15 pm 13:15 Sunny 67 19.5 53 11.5 60 60 SE 15 24 29.65 1004 10 16.09344 0 0
1:35 pm 13:35 Partly Cloudy 68 20 53 11.9 60 60 SSE 14 22 29.65 1004 10 16.09344 0 0
1:55 pm 13:55 Mostly Cloudy 69 20.4 54 12.1 59 59 SSE 16 26 29.59 1002 10 16.09344 0 0
2:15 pm 14:15 Mostly Cloudy 68 19.9 54 12.1 61 61 SSE 14 22 29.62 1003 10 16.09344 0 0
2:35 pm 14:35 Cloudy 67 19.6 54 12.3 63 63 SE 13 20 29.62 1003 10 16.09344 0 0
2:55 pm 14:55 Cloudy 68 20.1 55 12.6 62 62 SE 13 20 29.59 1002 10 16.09344 0 0
3:15 pm 15:15 Cloudy 68 20 55 12.5 62 62 SSE 16 26 29.56 1001 10 16.09344 0 0
3:35 pm 15:35 Cloudy 68 19.8 55 12.5 63 63 SSE 13 20 29.56 1001 10 16.09344 0 0
3:55 pm 15:55 Cloudy 68 20 55 12.7 63 63 SE 15 24 29.62 1003 10 16.09344 0 0
4:15 pm 16:15 Cloudy 68 20.2 55 12.8 63 63 SSE 15 24 29.59 1002 10 16.09344 0 0
4:35 pm 16:35 Cloudy 69 20.5 55 13 62 62 SSE 15 24 29.56 1001 10 16.09344 0 0
4:55 pm 16:55 Cloudy 67 19.5 55 12.8 65 65 SE 12 19 29.59 1002 10 16.09344 0 0
5:15 pm 17:15 Cloudy 68 20 56 13.1 65 65 SE 12 19 29.56 1001 10 16.09344 0 0
5:35 pm 17:35 Cloudy 68 20 56 13.2 65 65 ESE 13 20 29.62 1003 10 16.09344 0 0
5:55 pm 17:55 Cloudy 69 20.5 56 13.3 63 63 ESE 10 17 29.59 1002 10 16.09344 0 0
6:15 pm 18:15 Cloudy 66 19 56 13.5 71 71 E 16 26 29.62 1003 10 16.09344 0 0
6:35 pm 18:35 Mostly Cloudy 64 17.8 56 13.5 76 76 E 15 24 29.62 1003 10 16.09344 0 0
6:55 pm 18:55 Cloudy 63 17.2 56 13.5 79 79 E 14 22 29.62 1003 10 16.09344 0 0
7:15 pm 19:15 Cloudy 63 17 56 13.5 80 80 E 12 19 29.62 1003 10 16.09344 0 0
7:35 pm 19:35 Cloudy 62 16.7 56 13.5 82 82 ENE 12 19 29.68 1005 10 16.09344 0 0
7:55 pm 19:55 Mostly Cloudy 62 16.4 56 13.5 83 83 ENE 14 22 29.68 1005 10 16.09344 0 0
8:15 pm 20:15 Mostly Cloudy 60 15.7 56 13.5 87 87 ENE 10 17 29.68 1005 10 16.09344 0 0
8:35 pm 20:35 Cloudy 60 15.7 56 13.6 87 87 ENE 14 22 29.71 1006 10 16.09344 0 0
8:55 pm 20:55 Cloudy 60 15.8 56 13.6 87 87 ENE 10 17 29.71 1006 10 16.09344 0 0
9:15 pm 21:15 Cloudy 60 15.8 57 13.7 87 87 ENE 12 19 29.71 1006 10 16.09344 0 0
9:35 pm 21:35 Cloudy 60 15.8 56 13.6 87 87 ENE 12 19 29.71 1006 10 16.09344 0 0
9:55 pm 21:55 Cloudy 60 15.7 56 13.6 87 87 NE 12 19 29.71 1006 10 16.09344 0 0
10:15 pm 22:15 Cloudy 60 15.7 56 13.6 87 87 NNE 12 19 29.71 1006 10 16.09344 0 0
10:35 pm 22:35 Cloudy 56 13.2 51 10.8 86 86 N 15 24 29.77 1008 10 16.09344 0 0
10:55 pm 22:55 Cloudy 51 10.8 49 9.3 91 91 NNE 17 28 29.77 1008 10 16.09344 0 0
11:15 pm 23:15 Cloudy 50 9.8 48 8.7 93 93 N 15 24 29.8 1009 7 11.265408 0 0
11:35 pm 23:35 Cloudy with Light Drizzle 48 8.7 47 8.2 97 97 N 13 20 29.8 1009 4 6.437376 0 0
11:55 pm 23:55 Cloudy with Light Drizzle 47 8.3 46 8 98 98 NNE 20 31 29.8 1009 5 8.04672 0 0

Powered by AerisWeather